Flag for Azerbaijan Weather past 2 weeks in Sumqayit, Azerbaijan

Now
77 °F

Sunny.


Feels Like: 79 °F
Forecast: 76 / 89 °F
Wind: 3 mph from Northwest

Location: Baku / Bine Airport

Current Time: Jul 25, 2014 at 8:59:00 AM

Latest Report: Jul 25, 2014 at 8:30 AM


Visibility: 10 mi

Pressure: 29.68 "Hg

Humidity: 79%

Dew point: 70 °F

Location of SumqayitLocation

Historic Weather in Sumqayit — Graph

°F

Sumqayit temperature yesterday

Maximum temperature yesterday: 95 °F (at 12:00 PM)
Minimum temperature yesterday: 68 °F (at 5:30 AM)
Average temperature yesterday: 82 °F

Past Weeks' High & Low Weather Summary

 TemperatureHumidityPressure
High95 °F (Jul 16, 2:30 PM)100% (Jul 12, 6:00 AM)29.89 "Hg (Jul 12, 6:00 AM)
Low68 °F (Jul 24, 5:30 AM)15% (Jul 24, 1:00 PM)29.59 "Hg (Jul 19, 3:00 PM)
Average81 °F59%29.78 "Hg
* Reported Jul 10 7:00 AM — Jul 25 7:30 AM, Sumqayit, Weather by CustomWeather, © 2014

Note: Actual official high and low records may vary slightly from our data, if they occured in-between our weather recording intervals... More about our weather records

Advertising

Sumqayit weather history for previous 24 hours

 ConditionsComfort  
Time TempWeatherWind HumidityBarometerVisibility
7:30 AM
Jul 25
73 °FSunny.3 mph83%29.68 "Hg10 mi
7:00 AM73 °FClear.3 mph78%29.68 "Hg10 mi
6:30 AM73 °FClear.2 mph83%29.68 "Hg10 mi
6:00 AM73 °FClear.3 mph89%29.68 "Hg10 mi
5:30 AM73 °FClear.5 mph89%29.68 "Hg10 mi
5:00 AM73 °FClear.1 mph89%29.68 "Hg10 mi
4:30 AM75 °FClear.2 mph89%29.68 "Hg10 mi
4:00 AM75 °FClear.5 mph89%29.68 "Hg10 mi
3:30 AM75 °FClear.No wind89%29.68 "Hg10 mi
3:00 AM77 °FClear.5 mph89%29.71 "Hg10 mi
2:30 AM77 °FClear.No wind89%29.71 "Hg10 mi
2:00 AM77 °FClear.3 mph89%29.71 "Hg10 mi
1:30 AM77 °FClear.3 mph83%29.71 "Hg10 mi
1:00 AM77 °FClear.2 mph79%29.74 "Hg10 mi
12:30 AM77 °FClear.5 mph74%29.74 "Hg10 mi
12:00 AM81 °FClear.3 mph66%29.74 "Hg10 mi
11:30 PM
Jul 24
81 °FClear.3 mph62%29.74 "Hg10 mi
11:00 PM79 °FClear.No wind74%29.74 "Hg10 mi
10:30 PM81 °FClear.2 mph70%29.74 "Hg10 mi
10:00 PM81 °FSunny.7 mph70%29.74 "Hg10 mi
9:30 PM82 °FSunny.7 mph62%29.74 "Hg10 mi
9:00 PM84 °FSunny.6 mph58%29.74 "Hg10 mi
8:30 PM86 °FSunny.6 mph52%29.74 "Hg10 mi
8:00 PM88 °FSunny.9 mph38%29.74 "Hg10 mi
7:30 PM90 °FSunny.8 mph33%29.74 "Hg10 mi
7:00 PM91 °FSunny.6 mph28%29.74 "Hg10 mi
6:30 PM91 °FSunny.7 mph30%29.71 "Hg10 mi
6:00 PM91 °FSunny.8 mph30%29.74 "Hg10 mi
5:30 PM91 °FSunny.9 mph26%29.74 "Hg10 mi
5:00 PM95 °FSunny.9 mph19%29.74 "Hg10 mi
4:30 PM95 °FSunny.9 mph18%29.74 "Hg10 mi
4:00 PM95 °FSunny.10 mph16%29.74 "Hg10 mi
3:30 PM95 °FSunny.10 mph18%29.74 "Hg10 mi
3:00 PM95 °FSunny.9 mph18%29.77 "Hg10 mi
2:30 PM95 °FSunny.9 mph18%29.77 "Hg10 mi
2:00 PM95 °FSunny.8 mph16%29.77 "Hg10 mi
1:30 PM95 °FSunny.10 mph18%29.77 "Hg10 mi
1:00 PM95 °FSunny.9 mph15%29.80 "Hg10 mi
12:30 PM95 °FSunny.9 mph18%29.80 "Hg10 mi
12:00 PM95 °FSunny.9 mph18%29.80 "Hg10 mi
11:30 AM91 °FSunny.9 mph26%29.80 "Hg10 mi
10:30 AM88 °FSunny.1 mph40%29.83 "Hg10 mi
10:00 AM86 °FSunny.1 mph46%29.83 "Hg10 mi
9:30 AM82 °FSunny.2 mph58%29.83 "Hg10 mi
9:00 AM79 °FSunny.5 mph70%29.83 "Hg10 mi
8:30 AM75 °FSunny.5 mph83%29.83 "Hg10 mi
8:00 AM73 °FSunny.3 mph89%29.83 "Hg10 mi
Weather by CustomWeather, © 2014

See weather overviewHow to use our weather pages